Regional Weather Roundup
Issued by NWS Green Bay, WI

Home | Current Version | Previous Version | Graphics & Text | Print | Product List | Glossary Off
Versions: 1 2 3 4 5 6 7 8 9 10 11 12 13 14 15 16 17 18 19 20 21 22 23 24 25 26 27 28 29 30 31 32 33 34 35 36 37 38 39 40 41 42 43 44 45 46 47 48 49 50

000
ASUS43 KGRB 290559
RWRGRB

NORTH-CENTRAL AND NORTHEAST WISCONSIN REGIONAL WEATHER ROUNDUP
NATIONAL WEATHER SERVICE GREEN BAY WI
100 AM CDT FRI AUG 29 2014

WIZ005-009-010>012-018-019-290700-
NORTH CENTRAL WISCONSIN

CITY           SKY/WX    TMP DP  RH WIND       PRES   REMARKS
IRONWOOD       NOT AVBL
MANITOWISH WTR NOT AVBL
ARBOR VITAE    NOT AVBL
EAGLE RIVER    NOT AVBL
LAND O LAKES   NOT AVBL
RHINELANDER    CLOUDY    59  56  89 SE6       30.04F
PHILLIPS       NOT AVBL
ANTIGO         NOT AVBL
TOMAHAWK       NOT AVBL
MERRILL        NOT AVBL
$$

WIZ013-073-290700-
NORTHEAST WISCONSIN

CITY           SKY/WX    TMP DP  RH WIND       PRES   REMARKS
IRON MOUNTAIN  MOCLDY    59  55  87 SE5       30.05S
MARINETTE      CLOUDY    64  55  72 S8        30.05S
$$

WIZ017-030-035>037-045-290700-
CENTRAL WISCONSIN

CITY           SKY/WX    TMP DP  RH WIND       PRES   REMARKS
MEDFORD        NOT AVBL
WAUSAU         RAIN      58  57  97 S9        30.03S FOG
MOSINEE        NOT AVBL
MARSHFIELD     LGT RAIN  58  56  93 SE9       30.02S FOG
WISC RAPIDS    LGT RAIN  57  56  96 E7        30.02F
STEVENS POINT  NOT AVBL
WAUPACA        NOT AVBL
SHAWANO        NOT AVBL
CLINTONVILLE   NOT AVBL
$$

WIZ038-039-048-051-290700-
FOX VALLEY

CITY           SKY/WX    TMP DP  RH WIND       PRES   REMARKS
NWS GREEN BAY  LGT RAIN  63  58  83 S6        30.04F
APPLETON       NOT AVBL
OSHKOSH        LGT RAIN  64  58  80 SE8       30.02F
FOND DU LAC    LGT RAIN  64  58  80 SE10      30.02F
$$

WIZ022-050-052-290700-
EAST CENTRAL WISCONSIN

CITY           SKY/WX    TMP DP  RH WIND       PRES   REMARKS
STURGEON BAY   MOCLDY    63  55  77 SE6       30.06F
MANITOWOC      NOT AVBL
SHEBOYGAN      CLOUDY    64  59  83 SE5       30.04F
$$

LMZ563-521-522-541>543-290700-
LAKESHORE

STATION/POSITION TIME  TEMP    WIND        PRES    VSBY  WAVE
                       AIR SEA DIR/SP/G                  HT/PER
                 (UTC) (F)     (DEG/KT/KT) (MB)    (MI)  (FT/S)
SHEBOYGAN LKSHOR 0500   66 70  110/ 10/ 11 1017.8F
KEWAUNEE LKSHORE 0500   65     130/  7/ 10 1016.8F
NORTHPORT PIER   0500   65     120/ 11/ 13 1017.9F
N MID LAKE BUOY  0500   65 65  130/ 12/ 14 1018.5F         1
S GREEN BAY BUOY 0500   65     VRB 12/ 16  1018.4F
SISTER BAY LKSHO 0500   64     150/  7/  9   N/A
CHAMBERS ISLAND  0500   64     100/  3/ 10 1017.9F
MENOMINEE LKSHOR 0500   65     120/  9/ 11 1018.2F
$$



USA.gov is the U.S. government's official web portal to all federal, state and local government web resources and services.